Regional Weather Roundup
Issued by NWS

Home | Current Version | Previous Version | Text Only | Print | Product List | Glossary On
Versions: 1 2 3 4 5 6 7 8 9 10 11 12 13 14 15 16 17 18 19 20 21 22 23 24 25 26 27 28 29 30 31 32 33 34 35 36 37 38 39 40 41 42 43 44 45 46 47 48 49 50
000
ASUS43 KMKX 221100
RWRWI

WISCONSIN REGIONAL WEATHER ROUNDUP
NATIONAL WEATHER SERVICE MILWAUKEE/SULLIVAN WI
600 AM CDT FRI AUG 22 2014

NOTE: "FAIR" INDICATES FEW OR NO CLOUDS BELOW 12,000 FEET WITH NO
SIGNIFICANT WEATHER AND/OR OBSTRUCTIONS TO VISIBILITY.

WIZ001-002-006>008-014>016-023>028-221200-
NORTHWEST WISCONSIN

CITY           SKY/WX    TMP DP  RH WIND       PRES   REMARKS
SUPERIOR ARPT  DRIZZLE   60  60  99 NE7G18    29.94R
ASHLAND        CLOUDY    66  65  96 NE3       29.93R FOG
HAYWARD        FOG       68  68 100 NE3       29.92R VSB 1
SIREN          FOG       64  64  97 N3        29.91R VSB 3/4
RICE LAKE      FOG       70  68  95 CALM      29.91R VSB 1
LADYSMITH      CLOUDY    69  68  96 CALM      29.92R FOG
EAU CLAIRE     NOT AVBL
MENOMONIE      CLOUDY    72  71  98 CALM      29.89R FOG
NEW RICHMOND   CLOUDY    70  70 100 NW8       29.90S FOG
OSCEOLA        CLOUDY    67  67 100 W8        29.94R FOG
$$

WIZ003>005-009-010-017-018-221200-
NORTH CENTRAL WISCONSIN

CITY           SKY/WX    TMP DP  RH WIND       PRES   REMARKS
WOODRUFF       CLOUDY    64  62  91 SE5       29.95R FOG
RHINELANDER    FOG       63  63 100 E5        29.97R VSB 1/2
EAGLE RIVER    CLOUDY    63  63 100 CALM      29.96R FOG
LAND O LAKES   CLOUDY    64  63  99 CALM      29.97R
PHILLIPS       CLOUDY    64  64 100 E6        29.93R FOG
TOMAHAWK       FOG       64  63  97 CALM      29.95R VSB 1/2
MEDFORD        FOG       65  65 100 SE5       29.93R VSB 1/2
MERRILL        FOG       65  65 100 CALM      29.94R VSB 1/2
$$

WIZ029-030-035-036-043>047-221200-
CENTRAL WISCONSIN

CITY           SKY/WX    TMP DP  RH WIND       PRES   REMARKS
WAUSAU         FOG       65  65 100 E5        29.93R VSB 3/4
MOSINEE        FOG       64  64 100 CALM      29.94R VSB 1/4
MARSHFIELD     FOG       70  69  97 E5        29.92S VSB 1/4
STEVENS POINT  FOG       65  65 100 E3        29.93S VSB 1/4
WAUPACA        DRZL/FOG  70  69  95 CALM      29.93R VSB 1/4
WAUTOMA        NOT AVBL
WISC RAPIDS    CLOUDY    71  69  93 CALM      29.93S FOG
CAMP DOUGLAS   MOCLDY    68  68 100 SE5       29.90S
$$

WIZ011>013-019>022-031-037>040-048>050-221200-
NORTHEAST WISCONSIN

CITY           SKY/WX    TMP DP  RH WIND       PRES   REMARKS
ANTIGO         FOG       63  63 100 SE3       29.97R VSB 1/2
STURGEON BAY   CLOUDY    66  63  88 SE3       29.96R VSB 1
GREEN BAY      CLOUDY    66  65  96 CALM      29.95R FOG
MANITOWOC      FOG       66  66 100 CALM      29.95R VSB 3/4
APPLETON       NOT AVBL
CLINTONVILLE   FOG       64  64 100 E3        29.94R VSB 1/4
OSHKOSH        CLOUDY    70  69  97 S7        29.93R FOG
$$

WIZ032>034-041-042-053>061-221200-
SOUTHWEST WISCONSIN

CITY           SKY/WX    TMP DP  RH WIND       PRES   REMARKS
LA CROSSE      CLOUDY    74  71  91 SE3       29.87S
SPARTA         MOCLDY    66  65  96 CALM      29.89F
VIROQUA        PTSUNNY   68  68 100 CALM      29.90F VSB 3/4
BOSCOBEL       FOG       70  68  93 CALM      29.89R VSB 1/4
PRAIRIE DU CHI CLOUDY    71  69  94 CALM      29.88R FOG
PLATTEVILLE    MOCLDY    70  69  96 E7        29.91S VSB 1
$$

WIZ056-057-062-063-064-067-068-221200-
SOUTH CENTRAL WISCONSIN

CITY           SKY/WX    TMP DP  RH WIND       PRES   REMARKS
BARABOO/DELLS  CLOUDY    69  67  94 E5        29.91F FOG
LONE ROCK      CLOUDY    72  67  84 CALM      29.90S
WATERTOWN      FOG       71  71 100 CALM      29.91F VSB 3/4
MADISON        CLOUDY    73  71  93 SE3       29.91S FOG
MIDDLETON      CLOUDY    73  73 100 CALM      29.92S
MONROE         FOG       72  70  94 CALM      29.91S VSB 1/4
JANESVILLE     CLOUDY    73  72  94 CALM      29.90S FOG
$$

WIZ051-052-058>065-066-070>072-221200-
SOUTHEAST WISCONSIN

CITY           SKY/WX    TMP DP  RH WIND       PRES   REMARKS
MILWAUKEE      FOG       70  70 100 CALM      29.93F VSB 1/4
WAUKESHA       CLOUDY    68  68 100 CALM      29.94F FOG
MILWAUKEE/TIMM CLOUDY    70  66  88 CALM      29.94S FOG
RACINE         PTCLDY    69  68  96 CALM      29.93S FOG
BURLINGTON     FOG       69  69 100 CALM      29.91F VSB 1/4
KENOSHA        FOG       70  70 100 CALM      29.91F VSB 1/4
FOND DU LAC    CLOUDY    69  67  93 SE5       29.93S
SHEBOYGAN      FOG       67  67 100 NE3       29.95R VSB 1/4
WEST BEND      CLOUDY    68  64  88 CALM      29.94S FOG
JUNEAU         HAZE      70  46  42 E3        29.94F VSB<1/4
$$

LSZ147-162-221200-
LAKE SUPERIOR

STATION/POSITION TIME  TEMP    WIND        PRES    WAVE
                       AIR SEA DIR/SP/G            HT/PER
                 (UTC) (F)     (DEG/KT/KT) (MB)    (FT/S)
W MID LAKE BUOY  0950   57 59   50/ 14/ 16 1013.2R   2/ 4
DEVILS ISLAND    1000   59      70/ 12/ 14 1013.4R
PORT WING        1000   60      40/ 10/ 14 1013.2
SAXON HARBOR     1000   65        CALM     1012.9R
$$

LMZ867-665-643>646-221200-
LAKE MICHIGAN

STATION/POSITION TIME  TEMP    WIND        PRES    WAVE
                       AIR SEA DIR/SP/G            HT/PER
                 (UTC) (F)     (DEG/KT/KT) (MB)    (FT/S)
N MID LAKE BUOY  0950   65 64  120/  6/  8 1012.8F   0
NORTHPORT PIER   1000   65     100/  2/  4 1013.5R
SISTER BAY       1011   64     130/  6/ 10   N/A
KEWAUNEE LAKESHO 1000   66     160/  4/  5 1012.5R
SHEBOYGAN LAKESH 1000   67 65  170/  3/  4 1013.5R
ATWATER BUOY     1000   70     180/  6/  8 1014.5R
MILWAUKEE LAKESH 1000   69     160/  4/  4   N/A
S MID LAKE BUOY  0950   69 69  170/  8/ 10 1013.1R   0
KENOSHA   LAKESH 1000   71     340/  2/  3 1012.5F
$$

TC  - TEMPERATURE IN CELSIUS
VSB - VISIBILITY IN STATUTE MILES
WCI - WIND CHILL INDEX
HX  - HEAT INDEX



USA.gov is the U.S. government's official web portal to all federal, state and local government web resources and services.